Back to catalog

STARLINK-36935

AliveCommunicationsSSO
NORAD 68032·PAYLOAD·🇺🇸 United States

Launched Mar 1, 2026 from Vandenberg Space Force Base

Loading…

Next Passes (next 24 hours)

TLE

FreshSource: CelesTrak SupGP

Epoch: Sep 14, 2026, 21:01 UTC

1 68032C 26040T   26257.87618056 -.00011976  00000+0 -37203-3 0  2574
2 68032  97.2852 205.3568 0001602  88.2098 139.1729 15.33421418    12

Track STARLINK-36935 in real time with AllMySat

Download on the App Store